Regional Weather Roundup
Issued by NWS Wakefield, VA

Home | Current Version | Previous Version | Text Only | Print | Product List | Glossary Off
Versions: 1 2 3 4 5 6 7 8 9 10 11 12 13 14 15 16 17 18 19 20 21 22 23 24 25 26 27 28 29 30 31 32 33 34 35 36 37 38 39 40 41 42 43 44 45 46 47 48 49 50

000
ASUS41 KAKQ 300510
RWRAKQ

REGIONAL WEATHER ROUNDUP
NATIONAL WEATHER SERVICE WAKEFIELD VA
100 AM EDT SAT AUG 30 2014

Note: "fair" indicates few or no clouds below 12,000 feet with no
significant weather and/or obstructions to visibility. * = Denotes
station may not report precipitation (e.g., rain,snow,etc.),
thunder or fog.

VAZ042-051-052>054-056-300600-
NORTHERN VIRGINIA

CITY           SKY/WX    TMP DP  RH WIND       PRES   REMARKS
WASH NATIONAL  MOCLDY    71  61  70 S7        30.23R
DULLES         CLOUDY    67  57  70 SE5       30.23R
FORT BELVOIR   MOCLDY    62  59  91 E1        30.23R
QUANTICO       CLOUDY    71  62  73 S12       30.23R
FREDERICKSBRG* CLOUDY    65  61  87 CALM      30.21R
STAFFORD*      CLOUDY    60  60 100 CALM      30.26R
WARRENTON      CLOUDY    67  66  97 CALM      30.22R
CULPEPER*      MOCLDY   N/A N/A N/A CALM      30.23R
MANASSAS*      CLOUDY    66  64  94 CALM      30.22R
LEESBURG*      CLOUDY    64  61  88 CALM      30.24R
WINCHESTER     CLOUDY    68  59  73 SE3       30.21R
$$

VAZ048-049-060>072-079>083-300600-
CENTRAL AND SOUTH CENTRAL VIRGINIA...AND NORTH CENTRAL NORTH CAROLINA

CITY           SKY/WX    TMP DP  RH WIND       PRES   REMARKS
RICHMOND       PTCLDY    70  63  78 E3        30.21R
CHESTERFIELD*  CLOUDY   N/A N/A N/A S8        30.22R
PETERSBURG*    CLOUDY    69  60  72 CALM      30.22R
HANOVER        PTCLDY    66  62  87 E3        30.23R
TAPPAHANNOCK*  CLEAR     64  60  86 CALM      30.23R
CHARLOTTSVILLE CLOUDY    69  62  78 N3        30.22R
ORANGE*        CLOUDY    68  59  73 CALM      30.23R
LOUISA*        CLEAR     66  61  82 SE3       30.20S
FARMVILLE*     CLOUDY    73  66  78 SE6       30.19R
SOUTH HILL*      N/A     73  70  88 CALM      30.25S
ROANOKE RAPIDS CLOUDY    70  66  88 CALM      30.20S
RALEIGH        MOCLDY    75  69  81 E5        30.18F
$$

VAZ088>098-300600-
SOUTHEAST VIRGINIA

CITY           SKY/WX    TMP DP  RH WIND       PRES   REMARKS
NORFOLK        CLOUDY    74  63  68 E3        30.21R
VIRGINIA BEACH CLOUDY    73  64  73 SE6       30.21R
NORFOLK NAVAL  CLOUDY    74  63  68 E6        30.23R
WEST POINT*    PTCLDY    68  62  81 CALM      30.23R
NEWPORT NEWS   PTCLDY    70  62  76 CALM      30.21R
LANGLEY AFB    CLEAR     73  62  68 SE6       30.21R
FORT EUSTIS    CLOUDY    73  60  64 SE5       30.19S
WILLIAMSBURG*  CLOUDY    75  66  73 E3        30.22R
FRANKLIN*      CLOUDY    72  64  78 CALM      30.20S
WAKEFIELD      CLOUDY    73  63  70 CALM      30.21R
$$

VAZ020-022-025-037-045-300600-
WESTERN AND SOUTHWEST VIRGINIA

CITY           SKY/WX    TMP DP  RH WIND       PRES   REMARKS
STAUNTON*      CLOUDY    69  62  79 CALM      30.24R
HOT SPRINGS VA FOG       62  62 100 S8        30.34S VSB<1/4
LYNCHBURG      CLOUDY    72  69  90 CALM      30.23R
DANVILLE       MOCLDY    74  70  87 CALM      30.19S
MARTINSVILLE   CLOUDY    70  69  99 CALM      30.23S FOG
ROANOKE        CLOUDY    74  67  78 E6        30.23S
BLACKSBURG     CLOUDY    70  70 100 E5        30.28R
DUBLIN*        CLOUDY    69  69 100 CALM      30.26S FOG
MARION*        PTCLDY   N/A N/A N/A CALM      30.28R
HILLSVILLE*    MOCLDY    67  66  99 S3        30.27R FOG
RICHLANDS*     CLOUDY    76  65  69 S6        30.24R
WISE*          PTCLDY    70  68  94 S7        30.24R
ABINGDON*      CLEAR     70  68  96 CALM      30.22R FOG
$$

MDZ021>025-VAZ099-100-300600-
SOUTHERN MARYLAND AND THE DELMARVA PENINSULA

CITY           SKY/WX    TMP DP  RH WIND       PRES   REMARKS
PATUXENT RIVER CLEAR     71  58  63 SE8       30.23R
BAY BRIDGE APT   N/A     70  61  73 SE8       30.23S
LEONARDTOWN    PTCLDY    64  59  82 CALM      30.24R
DOVER          CLEAR     66  61  84 S5        30.22S
GEORGETOWN     CLEAR     62  59  90 E7        30.24R
EASTON         CLEAR     64  64  97 CALM      30.27S
CAMBRIDGE      CLEAR     63  59  88 CALM      30.23S
SALISBURY      CLEAR     62  57  83 CALM      30.24R
OCEAN CITY     CLEAR     68  60  75 SE6       30.23R
WALLOPS ISLAND CLEAR     64  60  87 CALM      30.24R
ACCOMACK*      CLEAR     61  57  88 CALM      30.23R
$$

NCZ012>017-030>032-300600-
EASTERN NORTH CAROLINA

CITY           SKY/WX    TMP DP  RH WIND       PRES   REMARKS
ELIZABETH CITY CLOUDY    74  65  73 E6        30.20S
AHOSKIE*       PTCLDY    70  66  87 CALM      30.21R
EDENTON*       MOCLDY    73  67  84 CALM      30.20R
CURRITUCK*     CLOUDY    75  62  62 E3        30.21R
KILL DEVIL HLS PTCLDY    75  66  75 E7        30.19R HAZE
MANTEO         PTCLDY    74  67  77 E9        30.20R
CAPE HATTERAS  CLEAR     77  75  93 E8        30.17R
GOLDSBORO      CLEAR     73  72  98 E5        30.16S
WASHINGTON     CLEAR     70  67  90 CALM      30.20R
GREENVILLE     PTCLDY    72  68  88 CALM      30.20S
NEW BERN       CLEAR     75  70  84 CALM      30.19S
WILMINGTON     CLEAR     72  71  97 CALM      30.16S
$$

VAZ048-300600-
ELSEWHERE

CITY           SKY/WX    TMP DP  RH WIND       PRES   REMARKS
HARRISBURG PA  PTCLDY    64  57  78 S3        30.22R
BALTIMORE      MOCLDY    68  60  75 E3        30.23R
ANNAPOLIS      CLOUDY    71  64  78 SE16      30.22S
ANDREWS AFB    PTCLDY    64  61  88 SE8       30.23R
WILMINGTON DE  CLEAR     67  59  75 SE5       30.25S
PHILADELPHIA   PTCLDY    66  59  78 SE3       30.25S
WILDWOOD NJ*   CLEAR     61  55  82 CALM      30.25S
ATLANTIC CITY  CLEAR     56  54  93 CALM      30.25S
HENDERSON NC   MOCLDY    72  65  77 E3        30.20S
GREENSBORO     CLOUDY    75  71  87 SE9       30.19R
ROCKY MOUNT    CLOUDY    72  67  84 NE3       30.19S
FAYETTEVILLE   PTCLDY    77  70  79 CALM      30.16S
CHARLOTTE      PTCLDY    77  71  82 SE8       30.18R
$$

VAZ100-300600-
MARINE

STATION/POSITION TIME  TEMP    WIND        PRES    WAVE   SWELL
                       AIR SEA DIR/SP/G            HT/PER HT/PER
                 (UTC) (F)     (DEG/KT/KT) (MB)    (FT/S) (FT/S)
44066 TX TWR #4  0500   70 72  120/ 10/ 12 1024.3R   3/ 8   3/ 8
CAPE MAY NJ      0500   68 79   70/  4/  5 1023.3S
LEWES DE         0500   70 76  140/  4/  5 1023.5R
15NM E FENWICK I 0500   72 73              1023.6R   3/ 8
OCEAN-CITY-INLET 0500   71 76  110/  3/  4 1023.3R
WACHAPREAGUE VA  0500   70 80   20/  2/  3 1023.4R
THOMAS POINT MD  0500   70 77  140/ 13/ 15 1024.4R
GOOSES REEF MD   0500   71     150/ 12/ 14 1023.9R
COVE POINT MD    0500   72     160/ 11/ 13 1023.4R
SOLOMONS ISLAND  0500      79                N/A
BISHOPS HEAD MD  0500   71 77  120/  9/ 11 1023.0S
PINEY POINT MD   0500          160/ 11/ 12   N/A
POTOMAC MD       0500   74     140/ 10/ 12 1022.6S
CAMBRIDGE MD     0500   66 78  120/  2/  4 1023.3F
LEWISETTA VA     0500   72 78  140/  6/  7 1023.0R
RAPPAHANNOCK LGT 0500          100/  7/  8 1023.8R
STINGRAY PT      0500   74     130/ 10/ 12   N/A
YORK RVR RNG VA  0500   75     140/ 11/ 13 1022.5R
YORKTOWN VA      0500   75 80  150/  5/  6 1022.6R
JAMESTOWN VA     0500   74     130/  8/ 12   N/A
DOMINION TERM VA 0500   75     110/ 10/ 12 1022.8S
KIPTOPEKE VA     0500      81  110/  4/  5   N/A
CHES BAY BRIDGE  0500   75 78  110/  8/ 11 1022.6R
CAPE HENRY VA    0500   75     110/ 10/ 12 1021.8R
CHESAPEAKE LGHT  0400   74     110/ 10/ 11 1023.3S
WILLOUBY STN VA  0500   74      90/  6/  6 1021.7R
S CRANEY ISL VA  0500           90/  6/  7 1022.6S
CAPE HENRY BUOY  0500      77                N/A     2/ 8
1ST LANDING BUOY 0500   76     110/ 10/ 14 1022.5S
CAPE CHARLES BUO 0500      76                N/A     2/ 8   2/ 8
OFFSHORE WE BUOY 0500      75                N/A     2/ 8   2/ 8
64NM E OF VA BCH 0500   76 76   80/  8/ 10 1022.6R   3/ 8   3/ 8
DUCK PIER NC     0500   76 78   90/ 13/ 14 1021.9S
44056 DUCK FRF   0500                        N/A     3/ 6
OREGON INLET NC  0500   75 79   50/  9/ 12 1022.1R
HATTERAS NC      0500   80 82  110/  7/ 10 1022.0S
DIAMOND SHLS NC  0500   79      50/  6/  8 1021.5R   4/ 8   3/ 8
CAPE LOOKOUT NC  0400   81     100/  3/  4 1021.4R
$$



USA.gov is the U.S. government's official web portal to all federal, state and local government web resources and services.